Location: Cheching
(60.0667°N, 164.2167°W)
Time: 02:14:44
(UTC+00:00)

SPROUT - Visible Passes

Search period start: 26 June 2022 00:00
Search period end: 06 July 2022 00:00
Orbit: 588 x 602 km, 97.9° (Epoch: 25 June)

Date Brightness Start Highest point End Pass type
(mag) Time Alt. Az. Time Alt. Az. Time Alt. Az.
26 Jun ? 10:49:29 10° SE 10:53:34 56° ENE 10:57:40 10° NNW visible
27 Jun ? 10:58:53 10° SSE 11:03:01 67° ENE 11:07:11 10° NNW visible
28 Jun ? 11:08:18 10° SSE 11:12:29 78° ENE 11:16:40 10° NNW visible
29 Jun ? 11:17:44 10° SSE 11:21:55 89° WSW 11:26:08 10° NNW visible
30 Jun ? 11:27:12 10° SSE 11:31:22 76° WSW 11:35:34 10° NNW visible
01 Jul ? 10:01:59 10° ESE 10:05:28 27° NE 10:08:59 10° N visible
01 Jul ? 11:36:41 10° S 11:40:49 64° WSW 11:44:59 10° NNW visible
02 Jul ? 10:11:10 10° ESE 10:14:49 30° ENE 10:18:30 10° N visible
02 Jul ? 11:46:11 10° S 11:50:16 54° WSW 11:54:24 10° NNW visible
03 Jul ? 10:20:23 10° SE 10:24:10 35° ENE 10:27:59 10° N visible
03 Jul ? 11:55:43 10° S 11:59:43 45° W 12:03:46 10° NNW visible
04 Jul ? 10:29:36 10° SE 10:33:31 40° ENE 10:37:26 10° N visible
04 Jul ? 12:05:15 10° SSW 12:09:10 38° W 12:13:06 10° NNW visible
05 Jul ? 10:38:51 10° SE 10:42:51 46° ENE 10:46:53 10° N visible
